Location: Glendale
(37.4556°N, 88.6714°W)
Time: 07:55:39
(UTC+00:00)

Okean 1-7 - Pass Details

Date: 08 December 2019
Orbit: 591 x 619 km, 82.5° (Epoch: 21 January)

Event Time Altitude Azimuth Distance (km) Brightness Sun altitude
Exits shadow 11:10:57 - 359° (N) 2,552 6.1 -20.4°
Reaches altitude 10° 11:12:22 10° 2° (N) 1,991 5.5 -20.1°
Maximum altitude 11:16:41 55° 81° (E) 748 3.7 -19.2°
Drops below altitude 10° 11:20:58 10° 159° (SSE) 1,970 6.1 -18.4°
Sets 11:23:13 0° 164° (SSE) 2,867 6.9 -18.0°
